Location: Saluda
(35.2377°N, 82.3468°W)
Time: 03:42:10
(UTC+00:00)

Vanguard 2 - Pass Details

Date: 12 October 2022
Orbit: 553 x 2933 km, 32.9° (Epoch: 04 December)

Event Time Altitude Azimuth Distance (km) Brightness Sun altitude
Rises 13:03:39 0° 189° (S) 2,912 10.7 16.9°
Reaches altitude 10° 13:07:47 10° 150° (SSE) 2,313 11.0 17.7°
Maximum altitude 13:09:05 11° 135° (SE) 2,370 11.6 18.0°
Drops below altitude 10° 13:10:29 10° 121° (ESE) 2,561 12.5 18.2°
Sets 13:16:16 0° 88° (E) 4,119 12.4 19.3°
